RH
10 12 13 12 14 13 14 17 17 16 14 15 15 15 12 11 12 7 6 6 7 6 5 6 6 7 7 7 8 8 8 9 11 11 11 11 10 11 12 14 15 16 16 17
10 12 11 13 13 15 16 14 14 12 12 13 12 10 8 6 5 5 5 5 5 6 5 5 6 6 7 7 8 8 8 9 10 11 11 11 12 13 14 15 15 16 17 17
11 10 12 12 13 14 14 13 13 12 11 10 10 7 4 3 4 4 4 5 5 5 5 5 5 5 6 7 8 8 8 9 10 10 11 12 14 14 15 14 15 15 16 17
13 12 11 11 12 12 13 11 12 13 13 12 11 9 7 4 4 4 4 4 4 4 4 5 5 5 5 6 7 8 8 9 10 10 11 13 14 14 14 14 15 16 16 17
14 14 14 13 12 13 14 14 14 14 15 16 12 13 6 6 5 6 6 5 4 4 4 4 5 5 5 6 6 8 8 8 9 10 12 13 14 14 15 15 15 15 16 17
16 16 16 15 14 14 14 13 14 20 18 13 13 13 9 7 8 8 7 7 6 6 5 4 5 5 6 6 7 8 9 8 10 11 12 13 13 13 14 14 14 15 16 17
18 16 15 16 16 15 15 15 15 11 15 12 18 18 11 10 11 11 10 8 7 6 6 5 5 5 6 7 8 9 10 10 11 11 12 12 12 12 13 13 14 15 16 17
21 19 19 18 16 16 17 16 16 11 14 20 20 14 12 11 10 9 9 9 8 7 6 5 5 5 6 7 8 8 9 10 11 11 12 12 11 11 12 13 14 15 16 17
20 18 19 20 20 18 19 19 17 19 23 23 15 11 7 12 12 11 10 10 9 8 7 7 5 5 6 6 7 8 9 10 10 11 11 11 11 11 12 13 13 14 15 16
19 19 18 19 20 22 20 20 22 23 18 14 12 14 11 13 13 11 11 11 10 9 9 8 8 7 8 8 8 8 8 8 9 10 11 11 11 11 12 12 13 14 15 16
21 21 19 19 20 22 24 25 25 24 23 19 18 13 10 14 12 14 13 13 12 10 10 9 9 10 8 9 9 9 8 8 8 9 10 10 10 10 11 11 12 13 14 15
24 25 24 21 20 20 21 22 24 29 25 29 27 22 11 12 13 13 13 12 14 12 11 11 10 10 10 10 9 9 9 9 8 9 10 10 10 10 10 11 11 12 13 14
28 28 29 24 23 23 23 22 24 26 28 31 31 21 14 14 13 12 12 12 14 14 12 12 11 10 10 10 10 9 8 9 9 9 10 11 10 10 10 11 11 12 13 14
31 31 29 29 24 26 26 26 27 27 30 25 24 18 19 19 18 15 13 12 11 11 14 14 13 12 10 10 10 10 10 9 9 9 10 11 11 11 11 12 12 13 14 14
45 39 35 34 33 31 30 29 29 30 27 27 21 21 17 17 19 18 17 15 14 13 13 14 15 15 13 11 10 11 11 11 11 11 11 11 13 13 13 12 12 13 13 15
52 54 50 44 37 37 40 36 32 29 27 27 26 23 20 20 19 18 19 18 18 16 15 14 13 15 16 15 13 12 13 13 13 13 12 13 14 14 14 14 13 13 14 15
52 57 56 51 47 46 39 29 27 26 27 25 27 24 23 25 25 23 21 22 23 22 20 17 15 13 13 15 16 15 14 15 15 15 15 15 16 15 15 15 14 14 15 16
45 51 58 55 56 55 32 29 29 31 31 32 32 35 34 32 27 25 29 28 26 25 24 21 19 16 14 13 14 16 15 15 16 17 18 17 17 17 16 15 15 16 16 17
37 45 56 54 53 40 33 34 35 39 42 44 40 38 35 32 29 26 26 28 29 29 27 26 24 21 18 16 14 12 15 16 16 17 17 20 19 18 18 18 18 18 19 19
60 61 63 59 67 60 40 42 43 45 49 51 47 44 44 39 36 30 27 29 28 29 30 28 26 25 23 19 17 15 14 14 16 17 18 19 20 22 21 22 23 23 22 21
43 58 71 77 78 56 53 48 42 57 59 57 54 51 48 49 47 40 35 31 32 30 29 29 29 27 25 24 21 18 17 16 15 16 16 17 20 22 22 23 24 26 27 27
54 55 53 48 56 45 52 58 69 67 63 61 59 57 53 52 47 44 39 37 33 31 30 30 29 29 29 26 25 23 20 18 17 17 17 17 17 18 21 22 23 24 25 26
57 54 57 60 49 34 40 51 50 52 55 55 58 55 51 44 41 40 41 41 39 34 32 33 31 30 30 32 30 27 25 22 20 19 18 18 20 19 17 17 18 21 22 23
46 40 46 47 27 27 26 24 26 34 43 47 52 49 50 44 41 38 35 34 36 37 34 35 35 34 32 33 33 33 30 27 24 22 21 20 19 19 20 20 19 19 19 19
46 48 42 47 36 37 27 25 29 31 34 36 36 42 42 41 39 38 37 36 35 32 32 31 35 37 37 38 37 36 34 31 29 27 26 24 24 23 22 21 21 22 23 24
35 37 49 43 30 43 39 33 30 34 33 31 35 36 36 39 38 38 36 35 36 36 40 33 32 38 41 43 41 41 41 35 33 31 30 30 28 27 26 24 23 23 24 25